time_stamp(utc),avg(mph),gust(mph),direction(deg),12m_air_temp(f),sonic_u(cm/s),sonic_v(cm/s),sonic_w(cm/s),pressure,2m_air_temp(f),pyranometer(W/m^2)
"2017-02-25 00:00:21+00",7.5,9.5,,52,-45,-304,-10,1011.59,51.8,0
"2017-02-25 00:05:21+00",6.3,9.3,,50.8,-76,-254,-18,1011.55,50.9,0
"2017-02-25 00:10:21+00",5.4,7.4,,50.2,-65,-218,-9,1011.55,50.3,0
"2017-02-25 00:15:21+00",6.5,9.5,,50.4,-7,-272,-12,1011.42,50.4,0
"2017-02-25 00:20:21+00",9.0,12.0,,50.1,-25,-378,-36,1011.28,50.1,0
"2017-02-25 00:25:21+00",10.9,14.9,,50.2,-25,-455,3,1011.23,50,0
"2017-02-25 00:30:21+00",11.9,14.9,,49.6,-16,-494,-10,1011.12,49.5,0
"2017-02-25 00:35:21+00",12.1,15.1,,49.9,-2,-509,-21,1011.04,49.6,0
"2017-02-25 00:40:21+00",11.4,14.4,,50,-18,-492,-19,1011.09,49.7,0
"2017-02-25 00:45:21+00",9.7,14.7,,50.2,-47,-405,-1,1011.14,49.9,0
"2017-02-25 00:50:21+00",12.2,15.2,,50.7,-4,-508,-29,1011.02,50.3,0
"2017-02-25 00:55:21+00",11.1,14.1,,50.4,-31,-462,-15,1011.08,50.1,0
"2017-02-25 01:00:21+00",11.2,16.2,,50.8,-87,-465,-16,1011.03,50.4,0
"2017-02-25 01:05:21+00",10.5,12.5,,50.9,-80,-437,-19,1011.04,50.6,0
"2017-02-25 01:10:21+00",9.9,12.9,,51.3,-79,-405,-7,1011.04,50.8,0
"2017-02-25 01:15:21+00",11.0,13.0,,52.1,-93,-459,-14,1010.9,51.7,0
"2017-02-25 01:20:21+00",9.2,11.2,,51.9,-78,-381,-7,1010.94,51.6,0
"2017-02-25 01:25:21+00",10.1,14.1,,52,-94,-414,-2,1010.88,51.7,0
"2017-02-25 01:30:21+00",11.3,14.3,,52.1,-77,-470,-19,1010.86,51.8,0
"2017-02-25 01:35:21+00",12.8,15.8,,51.8,-128,-528,-27,1010.92,51.6,0
"2017-02-25 01:40:21+00",10.9,13.9,,51.7,-125,-439,-3,1010.86,51.4,0
"2017-02-25 01:45:21+00",9.9,12.9,,51.5,-100,-407,9,1010.89,51.2,0
"2017-02-25 01:50:21+00",9.7,10.7,,51.3,-133,-388,-7,1010.98,51,0
"2017-02-25 01:55:21+00",10.4,13.4,,51.1,-148,-428,-2,1010.89,50.8,0
"2017-02-25 02:00:21+00",11.9,14.9,,51.4,-179,-477,-12,1010.87,50.9,0
"2017-02-25 02:05:21+00",11.9,14.9,,51.7,-137,-486,-1,1010.83,51.2,0
"2017-02-25 02:10:21+00",12.4,14.4,,52,-138,-511,2,1010.89,51.5,0
"2017-02-25 02:15:21+00",11.3,14.3,,52,-131,-462,-9,1010.9,51.7,0
"2017-02-25 02:20:21+00",9.3,12.3,,51.9,-105,-382,28,1010.86,51.6,0
"2017-02-25 02:25:21+00",10.4,13.4,,51.7,-81,-436,-9,1010.79,51.4,0
"2017-02-25 02:30:21+00",11.8,14.8,,51.6,-57,-492,-21,1010.78,51.3,0
"2017-02-25 02:35:21+00",10.3,12.3,,50.9,-56,-434,-20,1010.8,50.6,0
"2017-02-25 02:40:21+00",11.3,14.3,,51.1,-81,-477,-24,1010.78,50.7,0
"2017-02-25 02:45:21+00",11.7,15.7,,51.2,-86,-491,-16,1010.83,50.9,0
"2017-02-25 02:50:21+00",9.4,13.4,,50.9,-104,-382,15,1010.8,50.7,0
"2017-02-25 02:55:21+00",10.8,12.8,,51,-97,-439,-9,1010.8,50.7,0
"2017-02-25 03:00:21+00",9.2,12.2,,51.1,-82,-382,5,1010.9,50.7,0
"2017-02-25 03:05:21+00",10.8,14.8,,51.2,-68,-457,-24,1010.93,50.9,0
"2017-02-25 03:10:21+00",8.7,12.7,,50.6,-59,-360,23,1010.86,50.4,0
"2017-02-25 03:15:21+00",10.1,12.1,,51.2,-31,-424,-13,1010.77,50.8,0
"2017-02-25 03:20:21+00",10.7,14.7,,51,-32,-446,-22,1010.65,50.8,0
"2017-02-25 03:25:21+00",10.2,12.2,,50.9,-52,-420,-7,1010.61,50.6,0
"2017-02-25 03:30:21+00",8.8,11.8,,50.4,-69,-358,6,1010.62,50.3,0
"2017-02-25 03:35:21+00",7.4,9.4,,50.3,-114,-291,-5,1010.67,50.1,0
"2017-02-25 03:40:21+00",8.3,11.3,,50.3,-103,-335,-7,1010.71,50.1,0
"2017-02-25 03:45:21+00",10.3,11.3,,50.6,-144,-413,-3,1010.73,50.3,0
"2017-02-25 03:50:21+00",7.1,8.1,,50.7,-128,-274,-5,1010.68,50.3,0
"2017-02-25 03:55:21+00",9.0,11.0,,50.8,-124,-366,-20,1010.63,50.4,0
"2017-02-25 04:00:21+00",10.4,11.4,,50.8,-210,-396,0,1010.61,50.4,0
"2017-02-25 04:05:21+00",8.5,10.5,,51.1,-201,-316,2,1010.54,50.5,0
"2017-02-25 04:10:21+00",9.6,11.6,,51.4,-208,-363,-2,1010.54,50.8,0
"2017-02-25 04:15:21+00",8.7,10.7,,51.4,-187,-330,6,1010.49,50.9,0
"2017-02-25 04:20:21+00",8.4,9.4,,51.4,-148,-326,3,1010.48,50.8,0
"2017-02-25 04:25:21+00",11.4,13.4,,51.6,-130,-464,5,1010.34,51.1,0
"2017-02-25 04:30:21+00",10.7,14.7,,51.5,-112,-436,1,1010.38,51.2,0
"2017-02-25 04:35:21+00",10.5,13.5,,51.8,-116,-440,0,1010.3,51.2,0
"2017-02-25 04:40:21+00",10.5,13.5,,51.6,-133,-425,-5,1010.24,51.1,0
"2017-02-25 04:45:21+00",8.3,10.3,,51.1,-98,-333,-2,1010.3,50.8,0
"2017-02-25 04:50:21+00",6.7,8.7,,51,-91,-259,9,1010.26,50.6,0
"2017-02-25 04:55:21+00",9.3,11.3,,51.2,-178,-354,-5,1010.19,50.5,0
"2017-02-25 05:00:21+00",8.2,11.2,,51.3,-128,-327,6,1010.22,50.7,0
"2017-02-25 05:05:21+00",8.5,10.5,,51.4,-198,-321,-3,1010.2,50.8,0
"2017-02-25 05:10:21+00",10.5,13.5,,51.5,-189,-412,-5,1010.29,50.8,0
"2017-02-25 05:15:21+00",11.0,15.0,,51.7,-240,-419,-2,1010.31,50.9,0
"2017-02-25 05:20:21+00",10.5,13.5,,51.8,-119,-430,-14,1010.24,51.1,0
"2017-02-25 05:25:21+00",9.4,11.4,,51.5,-103,-385,-5,1010.28,51.1,0
"2017-02-25 05:30:21+00",11.3,14.3,,51.4,-142,-460,-13,1010.22,50.9,0
"2017-02-25 05:35:21+00",10.1,12.1,,50.9,-90,-414,-4,1010.26,50.5,0
"2017-02-25 05:40:21+00",6.9,8.9,,50.6,-34,-286,-10,1010.24,50.2,0
"2017-02-25 05:45:21+00",6.8,9.8,,50.8,-47,-277,-14,1010.24,50.2,0
"2017-02-25 05:50:21+00",7.9,8.9,,50.8,-69,-322,-9,1010.29,50.4,0
"2017-02-25 05:55:21+00",6.8,8.8,,50.9,-101,-275,-2,1010.29,50.4,0
"2017-02-25 06:00:21+00",8.3,11.3,,51,-119,-331,-3,1010.28,50.6,0
"2017-02-25 06:05:21+00",7.1,10.1,,51.1,-87,-285,3,1010.29,50.7,0
"2017-02-25 06:10:21+00",9.4,11.4,,51.5,-97,-382,-11,1010.2,51,0
"2017-02-25 06:15:21+00",8.6,11.6,,51.5,-122,-344,5,1010.09,51.2,0
"2017-02-25 06:20:21+00",8.4,10.4,,51.4,-101,-344,1,1009.97,51.1,0
"2017-02-25 06:25:21+00",7.8,9.8,,51.3,-65,-324,-5,1010.08,50.9,0
"2017-02-25 06:30:21+00",6.6,8.6,,51.3,-5,-279,-2,1009.97,50.9,0
"2017-02-25 06:35:21+00",7.7,9.7,,50.6,31,-312,-9,1009.98,50.4,0
"2017-02-25 06:40:21+00",6.2,7.2,,50,-11,-258,-10,1009.91,49.8,0
"2017-02-25 06:45:21+00",5.9,6.9,,49.5,3,-246,-3,1009.89,49.2,0
"2017-02-25 06:50:21+00",6.1,7.1,,49.5,-11,-247,-12,1009.83,49.1,0
"2017-02-25 06:55:21+00",6.1,8.1,,49.6,-2,-245,-17,1009.8,49.2,0
"2017-02-25 07:00:21+00",4.5,6.5,,49.6,-10,-184,6,1009.75,49.3,0
"2017-02-25 07:05:21+00",4.3,5.3,,49.8,-109,-151,12,1009.72,49.4,0
"2017-02-25 07:10:21+00",4.2,5.2,,49.9,-141,-104,14,1009.65,49.5,0
"2017-02-25 07:15:21+00",6.2,7.2,,49.5,-156,-222,8,1009.56,49.3,0
"2017-02-25 07:20:21+00",7.0,8.0,,49.4,-113,-279,1,1009.59,49.1,0
"2017-02-25 07:25:21+00",6.2,8.2,,49.7,-111,-243,7,1009.61,49.3,0
"2017-02-25 07:30:21+00",6.4,8.4,,49.9,-197,-193,8,1009.63,49.5,0
"2017-02-25 07:35:21+00",5.6,6.6,,50,-173,-164,4,1009.5,49.5,0
"2017-02-25 07:40:21+00",6.4,8.4,,50.1,-232,-154,10,1009.49,49.6,0
"2017-02-25 07:45:21+00",7.4,8.4,,50.5,-246,-202,1,1009.47,49.8,0
"2017-02-25 07:50:21+00",6.2,7.2,,50.8,-186,-205,0,1009.55,50.1,0
"2017-02-25 07:55:21+00",6.4,7.4,,50.9,-266,-92,10,1009.42,50.3,0
"2017-02-25 08:00:21+00",5.0,7.0,,51,-206,26,15,1009.47,50.4,0
"2017-02-25 08:05:21+00",6.8,7.8,,51.2,-256,-157,-3,1009.52,50.5,0
"2017-02-25 08:10:21+00",7.1,8.1,,51.3,-287,-86,15,1009.47,50.7,0
"2017-02-25 08:15:21+00",4.9,5.9,,51.1,-201,-81,13,1009.38,50.6,0
"2017-02-25 08:20:21+00",4.8,5.8,,51,-109,-177,-4,1009.32,50.7,0
"2017-02-25 08:25:21+00",5.9,6.9,,51,-84,-231,-4,1009.26,50.6,0
"2017-02-25 08:30:21+00",5.2,6.2,,50.8,-152,-158,3,1009.37,50.5,0
"2017-02-25 08:35:21+00",5.4,6.4,,50.6,-219,-104,13,1009.35,50.3,0
"2017-02-25 08:40:21+00",6.1,7.1,,50.4,-236,-137,4,1009.35,50.1,0
"2017-02-25 08:45:21+00",5.0,6.0,,50.2,-163,-136,6,1009.23,50,0
"2017-02-25 08:50:21+00",5.5,6.5,,50.1,-162,-175,-2,1009.17,49.8,0
"2017-02-25 08:55:21+00",4.4,5.4,,49.9,-66,-171,0,1008.99,49.6,0
"2017-02-25 09:00:21+00",5.1,6.1,,49.8,-133,-172,3,1008.94,49.5,0
"2017-02-25 09:05:21+00",6.0,7.0,,49.7,-86,-231,-6,1008.87,49.3,0
"2017-02-25 09:10:21+00",5.6,7.6,,49.6,-35,-231,-1,1008.88,49.3,0
"2017-02-25 09:15:21+00",7.6,8.6,,49.4,77,-307,-7,1008.76,49.1,0
"2017-02-25 09:20:21+00",4.8,6.8,,49.1,9,-195,-4,1008.66,48.9,0
"2017-02-25 09:25:21+00",5.8,6.8,,49,-42,-240,0,1008.61,48.8,0
"2017-02-25 09:30:21+00",5.7,6.7,,48.8,-9,-235,-19,1008.65,48.6,0
"2017-02-25 09:35:21+00",5.0,6.0,,48.4,-38,-201,-8,1008.63,48.3,0
"2017-02-25 09:40:21+00",4.9,4.9,,47.7,48,-191,-4,1008.6,47.7,0
"2017-02-25 09:45:21+00",4.5,5.5,,47.2,64,-176,-4,1008.55,47.1,0
"2017-02-25 09:50:21+00",6.0,7.0,,47,114,-225,-10,1008.57,46.7,0
"2017-02-25 09:55:21+00",6.2,7.2,,47,124,-234,-7,1008.55,46.6,0
"2017-02-25 10:00:21+00",6.3,7.3,,46.7,112,-243,-9,1008.51,46.5,0
"2017-02-25 10:05:21+00",7.2,8.2,,46.4,84,-297,-13,1008.38,46.2,0
"2017-02-25 10:10:21+00",8.2,9.2,,46.1,118,-334,-12,1008.38,45.9,0
"2017-02-25 10:15:21+00",8.5,9.5,,46,90,-353,-15,1008.49,45.6,0
"2017-02-25 10:20:21+00",9.0,10.0,,46.1,94,-373,-13,1008.46,45.7,0
"2017-02-25 10:25:21+00",7.7,9.7,,45.9,85,-318,-7,1008.48,45.5,0
"2017-02-25 10:30:21+00",6.7,7.7,,45.8,114,-253,-3,1008.56,45.5,0
"2017-02-25 10:35:21+00",7.0,8.0,,45.3,110,-282,-12,1008.56,45.1,0
"2017-02-25 10:40:21+00",8.3,10.3,,45.1,172,-315,-20,1008.4,45,0
"2017-02-25 10:45:21+00",8.7,9.7,,45.2,193,-323,-12,1008.47,45.1,0
"2017-02-25 10:50:21+00",8.5,9.5,,45.5,161,-327,-8,1008.25,45.2,0
"2017-02-25 10:55:21+00",10.2,11.2,,45.4,248,-372,-10,1008.21,45.2,0
"2017-02-25 11:00:21+00",10.4,12.4,,45.9,175,-415,-15,1008.08,45.4,0
"2017-02-25 11:05:21+00",11.8,13.8,,46.5,224,-456,-11,1007.94,46,0
"2017-02-25 11:10:21+00",12.2,13.2,,45.8,288,-436,-7,1008.01,45.6,0
"2017-02-25 11:15:21+00",10.8,11.8,,45.9,207,-418,-3,1007.92,45.5,0
"2017-02-25 11:20:21+00",10.8,11.8,,46,207,-418,-9,1008,45.7,0
"2017-02-25 11:25:21+00",10.5,12.5,,46.2,206,-398,-3,1007.88,45.9,0
"2017-02-25 11:30:21+00",10.5,11.5,,46.1,180,-410,-4,1007.83,45.7,0
"2017-02-25 11:35:21+00",10.9,12.9,,46.3,177,-432,-5,1007.89,45.9,0
"2017-02-25 11:40:21+00",10.0,12.0,,46.5,144,-407,-13,1007.86,46.1,0
"2017-02-25 11:45:21+00",9.2,10.2,,46.1,141,-366,-7,1007.92,45.8,0
"2017-02-25 11:50:21+00",8.2,9.2,,45.9,150,-325,-5,1008.07,45.7,0
"2017-02-25 11:55:21+00",5.2,6.2,,45.6,-7,-219,24,1008.06,45.5,0
"2017-02-25 12:00:21+00",5.4,7.4,,45.5,53,-218,-7,1008.22,45.4,0
"2017-02-25 12:05:21+00",3.6,5.6,,45.4,-16,-140,-10,1008.17,45.4,0
"2017-02-25 12:10:21+00",3.5,6.5,,45.3,-15,-143,15,1008.21,45.4,0.2
"2017-02-25 12:15:21+00",4.0,6.0,,45.2,-373,-168,178,1008.19,45.2,3.5
"2017-02-25 12:20:21+00",5.9,7.9,,45.2,-168,-244,90,1008.07,45.2,13
"2017-02-25 12:25:21+00",7.7,8.7,,45.2,75,-307,2,1008.13,45.2,2.7
"2017-02-25 12:30:21+00",7.7,8.7,,45.4,-143,-292,126,1008.01,45.3,3.9
"2017-02-25 12:35:21+00",8.4,9.4,,45.6,127,-332,-8,1007.88,45.5,25.2
"2017-02-25 12:40:21+00",7.1,8.1,,45.7,-809,-284,426,1007.77,45.7,36.9
"2017-02-25 12:45:21+00",7.2,9.2,,46.1,-74,-294,34,1007.86,46.1,39.7
"2017-02-25 12:50:21+00",4.4,6.4,,46.2,-3050,-175,1480,1007.75,46.4,42.7
"2017-02-25 12:55:21+00",5.9,7.9,,46.3,-1204,-247,548,1007.75,46.4,41.2
"2017-02-25 13:00:21+00",7.2,8.2,,46.9,-16,-298,-3,1007.66,46.9,37.2
"2017-02-25 13:05:21+00",9.8,11.8,,46.9,57,-410,-1,1007.59,46.8,35.8
"2017-02-25 13:10:21+00",9.7,10.7,,46.9,100,-400,-12,1007.45,46.8,35.7
"2017-02-25 13:15:21+00",9.7,12.7,,46.6,-157,-387,137,1007.34,46.7,55.3
"2017-02-25 13:20:21+00",9.2,11.2,,46.7,97,-382,-16,1007.19,46.8,92.5
"2017-02-25 13:25:21+00",8.2,10.2,,46.4,95,-343,-4,1007.2,46.6,88.6
"2017-02-25 13:30:21+00",11.1,12.1,,46.6,183,-435,-17,1007.15,46.8,48.7
"2017-02-25 13:35:21+00",10.1,12.1,,47.3,194,-394,-6,1007.06,47.5,92.7
"2017-02-25 13:40:21+00",11.2,12.2,,47.3,172,-458,-19,1006.92,47.7,106.8
"2017-02-25 13:45:21+00",10.1,12.1,,47.5,128,-411,-17,1006.83,47.8,109.9
"2017-02-25 13:50:21+00",7.7,9.7,,47.5,35,-312,13,1006.79,48.1,151.3
"2017-02-25 13:55:21+00",9.3,11.3,,47.6,56,-394,-15,1006.81,48,147.4
"2017-02-25 14:00:21+00",11.1,12.1,,47.6,142,-460,-7,1006.76,48.1,141.1
"2017-02-25 14:05:21+00",11.4,12.4,,47.5,115,-481,-25,1006.57,48.1,152.4
"2017-02-25 14:10:21+00",8.4,9.4,,47.4,68,-359,-7,1006.56,48.1,173.4
"2017-02-25 14:15:21+00",10.4,12.4,,48,46,-439,-13,1006.47,48.3,190.1
"2017-02-25 14:20:21+00",9.5,13.5,,47.5,51,-395,0,1006.49,48.1,172.3
"2017-02-25 14:25:21+00",6.5,8.5,,48.2,12,-275,13,1006.56,48.7,150.2
"2017-02-25 14:30:21+00",8.1,10.1,,48.1,-59,-337,0,1006.45,48.7,153.1
"2017-02-25 14:35:21+00",7.0,9.0,,48.3,-8,-282,5,1006.35,48.8,156.1
"2017-02-25 14:40:21+00",6.0,9.0,,48.4,-20,-248,36,1006.35,49,167.6
"2017-02-25 14:45:21+00",10.4,12.4,,48.6,48,-433,-16,1006.19,49.1,200.2
"2017-02-25 14:50:21+00",6.9,8.9,,49,41,-293,5,1006.09,49.5,224.4
"2017-02-25 14:55:21+00",9.4,12.4,,49.2,40,-399,-17,1006.03,49.9,228
"2017-02-25 15:00:21+00",7.6,11.6,,49.5,-29,-314,-5,1006.13,50.1,239.8
"2017-02-25 15:05:21+00",13.0,15.0,,49.6,50,-540,-24,1006.03,50,227.2
"2017-02-25 15:10:21+00",12.5,14.5,,50.2,87,-518,-16,1005.96,50.7,240.5
"2017-02-25 15:15:21+00",12.9,15.9,,50.1,74,-556,-15,1005.86,51,255.3
"2017-02-25 15:20:21+00",11.3,14.3,,50.9,38,-481,-15,1005.84,51.6,285.6
"2017-02-25 15:25:21+00",12.1,15.1,,51.3,49,-526,-21,1005.66,52,317.4
"2017-02-25 15:30:21+00",12.1,15.1,,51.6,77,-506,-9,1005.62,52.5,313.6
"2017-02-25 15:35:21+00",11.2,15.2,,50.7,109,-466,4,1005.54,52,259.7
"2017-02-25 15:40:21+00",12.3,15.3,,50.4,113,-520,3,1005.5,51.5,265.9
"2017-02-25 15:45:21+00",13.4,15.4,,50.4,85,-567,-52,1005.43,51.5,289.7
"2017-02-25 15:50:21+00",12.5,14.5,,50.1,101,-515,-4,1005.56,51.5,268.8
"2017-02-25 15:55:21+00",12.7,16.7,,50,109,-538,-16,1005.41,51.5,294.9
"2017-02-25 16:00:21+00",12.8,15.8,,50.2,81,-546,-17,1005.25,51.7,318.8
"2017-02-25 16:05:21+00",11.3,13.3,,50.4,57,-474,1,1005.18,51.8,307.3
"2017-02-25 16:10:21+00",11.0,13.0,,50.4,9,-462,-28,1005.24,51.6,324.5
"2017-02-25 16:15:21+00",12.0,15.0,,50.4,59,-498,-12,1004.93,51.9,289.8
"2017-02-25 16:20:21+00",12.7,16.7,,50.6,77,-538,-19,1004.81,52.2,337.2
"2017-02-25 16:25:21+00",13.4,16.4,,50.8,77,-574,-11,1004.77,52.7,333.9
"2017-02-25 16:30:21+00",15.1,17.1,,50.2,145,-633,-31,1004.75,51.9,305.1
"2017-02-25 16:35:21+00",12.5,16.5,,50,63,-530,-9,1004.72,51.5,331.9
"2017-02-25 16:40:21+00",12.3,15.3,,50.6,31,-509,-6,1004.77,52.2,356.2
"2017-02-25 16:45:21+00",11.9,15.9,,50.8,1,-498,-15,1004.58,52.3,287.4
"2017-02-25 16:50:21+00",11.8,16.8,,51.2,-18,-499,-28,1004.56,52.9,294.4
"2017-02-25 16:55:21+00",12.8,16.8,,52.3,-18,-533,-5,1004.42,53.7,368.2
"2017-02-25 17:00:21+00",10.9,14.9,,52.9,1,-462,-6,1004.21,54.5,332.6
"2017-02-25 17:05:21+00",9.4,12.4,,51.6,-21,-382,-2,1004.05,53.3,350
"2017-02-25 17:10:21+00",8.9,12.9,,51.9,15,-363,2,1003.92,53.7,311.3
"2017-02-25 17:15:21+00",13.9,17.9,,51.7,131,-574,-11,1003.54,53.6,357.6
"2017-02-25 17:20:21+00",14.9,18.9,,51.7,144,-615,-5,1003.34,53.5,320.8
"2017-02-25 17:25:21+00",16.5,19.5,,51.1,263,-670,-12,1003.21,52.9,189.2
"2017-02-25 17:30:21+00",17.9,19.9,,51.2,275,-728,-20,1003.07,52.8,311.6
"2017-02-25 17:35:21+00",17.5,19.5,,51.5,291,-691,-10,1003.04,52.9,268.6
"2017-02-25 17:40:21+00",12.7,16.7,,51.5,118,-528,-2,1003.14,53.2,330.8
"2017-02-25 17:45:21+00",13.5,15.5,,51.1,173,-559,-15,1002.99,53.1,357.3
"2017-02-25 17:50:21+00",12.2,15.2,,51.1,117,-513,-2,1002.95,53.2,375.1
"2017-02-25 17:55:21+00",15.6,18.6,,50.9,170,-654,-45,1002.74,52.8,364.5
"2017-02-25 18:00:21+00",14.8,15.8,,50.9,154,-621,-23,1002.8,53,366.7
"2017-02-25 18:05:21+00",14.0,18.0,,51.1,132,-590,-38,1002.49,52.9,358.3
"2017-02-25 18:10:21+00",14.2,17.2,,52.2,187,-577,-13,1002.14,54.1,344.5
"2017-02-25 18:15:21+00",11.6,15.6,,52.2,70,-468,23,1002.16,54.2,348.6
"2017-02-25 18:20:21+00",14.1,18.1,,52.7,122,-581,-5,1002.01,54.4,348.2
"2017-02-25 18:25:21+00",15.7,18.7,,52.9,152,-646,-20,1001.87,54.7,346.8
"2017-02-25 18:30:21+00",12.4,17.4,,52.6,76,-530,-2,1001.92,54.5,351.3
"2017-02-25 18:35:21+00",14.4,16.4,,52.4,145,-593,5,1001.72,54.2,338.2
"2017-02-25 18:40:21+00",16.7,20.7,,51.9,192,-696,-30,1001.58,53.6,335
"2017-02-25 18:45:21+00",10.6,14.6,,52,83,-433,25,1001.58,53.9,331.3
"2017-02-25 18:50:21+00",14.2,17.2,,51.7,133,-586,5,1001.49,53.6,324.8
"2017-02-25 18:55:21+00",15.0,18.0,,51.5,132,-632,-28,1001.24,53.1,308.5
"2017-02-25 19:00:21+00",14.8,17.8,,51.4,197,-619,-9,1001.07,53.2,287.3
"2017-02-25 19:05:21+00",16.2,18.2,,51.3,173,-661,-27,1001,52.9,288.8
"2017-02-25 19:10:21+00",13.7,15.7,,51.4,139,-569,-11,1001.11,53.3,272.7
"2017-02-25 19:15:21+00",11.0,14.0,,51.7,57,-470,16,1001.12,53.3,295.5
"2017-02-25 19:20:21+00",11.6,14.6,,51.8,93,-483,13,1000.92,53.5,277.5
"2017-02-25 19:25:21+00",12.9,15.9,,51.5,119,-532,2,1000.65,53.1,262.7
"2017-02-25 19:30:21+00",12.6,14.6,,51.3,97,-531,-5,1000.67,52.9,264.9
"2017-02-25 19:35:21+00",11.8,15.8,,51.6,39,-488,-26,1000.55,53.1,259.8
"2017-02-25 19:40:21+00",8.7,10.7,,52,23,-370,-1,1000.64,53.5,256.6
"2017-02-25 19:45:21+00",13.8,15.8,,51.9,39,-598,-23,1000.52,53.3,257.5
"2017-02-25 19:50:21+00",11.3,14.3,,52,47,-486,-11,1000.5,53.4,256.6
"2017-02-25 19:55:21+00",12.4,15.4,,51.3,65,-520,-19,1000.39,52.7,211
"2017-02-25 20:00:21+00",10.4,13.4,,51.3,42,-442,-11,1000.36,52.3,185.9
"2017-02-25 20:05:21+00",12.9,15.9,,51,86,-551,-16,1000.24,52.1,177.8
"2017-02-25 20:10:21+00",12.7,15.7,,50.7,60,-548,-21,1000.2,51.8,173
"2017-02-25 20:15:21+00",13.3,16.3,,50.6,52,-560,-29,1000.03,51.7,193.7
"2017-02-25 20:20:21+00",14.6,18.6,,50.2,149,-615,-33,999.65,51.5,160
"2017-02-25 20:25:21+00",14.3,17.3,,49.7,165,-590,-1,999.29,51,89.5
"2017-02-25 20:30:21+00",15.9,17.9,,49.3,194,-646,-36,999.18,50.3,155
"2017-02-25 20:35:21+00",13.6,17.6,,49.5,148,-567,-12,999.11,50.5,140.8
"2017-02-25 20:40:21+00",15.7,17.7,,49.2,175,-641,-17,999.07,50.3,127.2
"2017-02-25 20:45:21+00",15.3,19.3,,49.1,126,-641,-18,999.07,50.1,113.2
"2017-02-25 20:50:21+00",13.7,16.7,,49.2,92,-588,-10,998.99,50.2,114.1
"2017-02-25 20:55:21+00",12.7,17.7,,49.4,81,-534,-3,998.64,50.4,99.3
"2017-02-25 21:00:21+00",14.6,17.6,,49.6,67,-614,-22,998.54,50.4,104.1
"2017-02-25 21:05:21+00",15.9,18.9,,49.3,51,-681,-42,998.72,50.1,89.5
"2017-02-25 21:10:21+00",15.6,20.6,,49.3,35,-655,-14,998.67,49.8,22.9
"2017-02-25 21:15:21+00",15.8,19.8,,49.3,46,-675,-10,998.76,49.6,0.8
"2017-02-25 21:20:21+00",14.3,18.3,,49.2,31,-619,-14,998.74,49.4,1.1
"2017-02-25 21:25:21+00",15.0,19.0,,49.5,20,-635,-14,998.64,49.6,2.5
"2017-02-25 21:30:21+00",16.4,20.4,,49.8,65,-697,-20,998.51,49.9,2.8
"2017-02-25 21:35:21+00",14.8,17.8,,49.6,36,-633,-29,998.37,49.8,2.2
"2017-02-25 21:40:21+00",14.5,18.5,,49.7,16,-623,-20,998.33,49.7,1
"2017-02-25 21:45:21+00",14.8,17.8,,49.7,27,-624,-25,998.34,49.8,0
"2017-02-25 21:50:21+00",14.3,18.3,,50.1,16,-597,-18,998.24,50.1,0
"2017-02-25 21:55:21+00",13.3,16.3,,50.2,-5,-546,-8,998.19,50.3,0
"2017-02-25 22:00:21+00",13.4,17.4,,50.4,-3,-570,-11,998.24,50.4,0
"2017-02-25 22:05:21+00",11.2,14.2,,50.3,-21,-461,-3,998.33,50.4,0
"2017-02-25 22:10:21+00",14.5,18.5,,50.7,9,-608,-21,998.28,50.6,0
"2017-02-25 22:15:21+00",11.6,14.6,,50.9,0,-492,-8,998.3,50.8,0
"2017-02-25 22:20:21+00",13.1,16.1,,51.4,-8,-544,-2,998.24,51.2,0
"2017-02-25 22:25:21+00",12.3,16.3,,51.7,1,-516,-22,998.26,51.5,0
"2017-02-25 22:30:21+00",13.5,18.5,,51.8,16,-566,-22,998.16,51.6,0
"2017-02-25 22:35:21+00",14.6,17.6,,51.5,41,-628,-18,997.96,51.4,0
"2017-02-25 22:40:21+00",15.2,17.2,,51.3,27,-646,-24,998.27,51.2,0
"2017-02-25 22:45:21+00",14.0,18.0,,51.4,19,-605,-16,998.23,51.2,0
"2017-02-25 22:50:21+00",14.4,18.4,,51.4,36,-604,-24,998.07,51.3,0
"2017-02-25 22:55:21+00",11.4,14.4,,51.2,-38,-485,-14,998.2,51.1,0
"2017-02-25 23:00:21+00",11.6,17.6,,51.5,-70,-488,-27,998.21,51.3,0
"2017-02-25 23:05:21+00",13.3,16.3,,51.9,-126,-544,-11,998.11,51.7,0
"2017-02-25 23:10:21+00",12.3,16.3,,52,-139,-497,-4,998.21,51.9,0
"2017-02-25 23:15:21+00",10.8,13.8,,52,-152,-430,8,998.34,51.8,0
"2017-02-25 23:20:21+00",21.2,23.2,,52.3,-910,-133,51,999.88,51.9,0
"2017-02-25 23:25:21+00",18.6,23.6,,54.4,-791,-181,56,1000.13,53.3,0
"2017-02-25 23:30:21+00",16.1,18.1,,56,-743,-159,27,999.43,54.5,0
"2017-02-25 23:35:21+00",9.5,11.5,,56,-419,-187,0,999.2,54.6,0
"2017-02-25 23:40:21+00",12.5,13.5,,55.7,-502,-264,11,999.47,54.5,0
"2017-02-25 23:45:21+00",14.9,15.9,,55.1,-541,-360,11,1000.14,54.1,0
"2017-02-25 23:50:21+00",11.1,12.1,,54.8,-218,-422,-4,999.69,53.9,0
"2017-02-25 23:55:21+00",12.5,13.5,,54.5,-475,-297,14,1000.16,53.8,0
